Vorticity
11 11 11 11 11 11 11 11 12 12 12 12 11 11 11 11 11 11 10 11 11 10 10 11 11 11 10 10 10 10 9 10 10 12 12 13 13 13 12 12 13 14 15 17 16 16 15 14 14 13 13 12 12 12 12 13 14 14 14 13 13 13 13 13 13 14 16 18 18
11 11 11 11 11 11 11 12 12 12 12 12 12 11 11 12 11 11 11 11 11 11 10 11 11 11 11 11 11 10 10 9 10 10 11 12 13 12 12 12 13 14 15 17 17 16 16 15 14 13 13 12 12 12 12 12 13 14 14 13 12 12 12 11 11 12 14 16 17
11 11 11 12 12 12 12 12 12 12 12 12 12 12 12 12 12 11 11 11 11 11 11 11 11 11 11 11 11 11 10 10 10 10 11 11 12 12 13 13 13 13 15 16 17 17 16 15 15 14 13 12 12 12 12 12 13 14 14 14 13 13 12 10 11 12 13 15 16
11 12 12 12 13 13 13 13 12 12 12 12 12 12 13 12 12 12 12 11 11 12 12 11 11 12 12 12 12 11 11 10 10 10 10 11 11 12 12 12 13 13 14 16 17 18 17 16 15 15 14 13 12 12 12 12 13 13 14 15 15 13 12 10 10 11 12 13 15
12 12 13 13 13 13 13 13 13 13 12 12 13 13 13 13 13 12 12 13 13 13 12 12 12 12 13 13 13 12 12 11 11 11 11 11 11 12 12 13 13 13 14 15 17 18 18 17 16 15 14 13 12 11 11 12 13 14 15 16 16 15 13 11 10 10 11 11 12
12 12 13 13 13 13 13 14 14 13 13 13 13 13 13 14 13 13 13 14 13 13 13 13 13 13 13 13 13 13 13 13 12 12 12 11 11 12 12 13 13 13 14 15 17 18 18 17 16 14 13 12 11 10 11 12 14 15 16 17 17 17 15 12 10 10 9 9 10
12 13 13 13 14 14 14 14 14 14 14 14 14 14 14 14 14 14 14 13 13 13 13 13 13 14 14 14 14 14 14 14 14 13 13 12 12 12 12 13 13 13 14 14 16 17 18 18 16 15 13 12 11 10 10 11 13 15 16 17 18 18 17 14 12 10 9 8 9
13 13 13 13 14 14 14 14 14 14 14 15 15 15 14 14 14 14 13 13 14 14 14 14 15 15 15 15 15 15 14 14 14 14 14 14 13 13 13 13 13 13 13 14 15 17 18 19 17 15 13 12 10 8 8 9 12 14 15 15 17 18 18 18 15 12 9 7 7
13 13 14 14 14 14 14 14 14 14 14 14 15 15 14 14 14 14 14 14 14 14 14 15 15 15 15 14 14 14 13 13 13 13 14 14 15 15 14 14 14 13 13 13 15 17 18 19 18 16 13 11 9 7 6 7 10 12 13 14 16 17 19 20 18 15 12 9 7
14 13 13 14 14 14 14 14 14 14 14 14 14 14 14 14 14 14 14 13 13 13 14 14 14 14 14 13 12 12 12 12 12 13 14 14 15 16 16 16 15 14 13 13 15 16 18 20 19 16 12 9 7 5 5 5 7 9 11 13 16 17 18 19 19 18 16 12 10
14 14 14 14 13 13 13 13 13 14 14 14 14 14 14 14 14 14 13 12 13 13 13 13 14 13 13 12 11 10 10 11 12 12 13 15 16 17 17 17 16 15 14 14 15 16 17 19 19 17 14 9 7 5 4 3 4 6 9 12 15 17 18 19 20 20 19 16 13
14 14 14 13 13 13 13 13 13 13 13 14 14 14 14 14 14 13 13 13 13 12 12 13 12 12 11 11 10 10 10 11 12 13 14 15 17 18 18 18 17 16 15 15 15 16 17 18 20 19 17 13 10 7 6 4 4 4 6 9 13 16 18 20 21 21 20 18 15
14 13 13 13 13 13 13 13 13 13 13 13 13 13 13 14 13 13 13 13 12 12 12 12 11 11 10 9 9 10 10 12 13 14 16 17 18 19 19 20 19 18 16 15 15 16 17 18 20 20 19 17 14 11 9 8 5 4 4 5 9 13 17 21 23 23 22 20 17
13 13 13 13 13 12 12 12 13 13 13 13 13 13 13 13 13 14 14 13 12 12 11 11 11 10 9 8 9 9 10 12 14 16 18 20 21 21 21 21 21 20 18 16 16 17 19 20 21 22 21 19 17 15 13 10 7 5 3 3 5 8 13 19 24 26 26 23 20
14 13 13 13 12 12 12 12 12 13 13 13 13 13 13 13 14 14 14 14 13 12 11 11 10 9 8 8 8 9 10 11 14 17 20 22 24 24 24 24 23 22 19 18 18 19 21 22 22 22 22 21 18 17 15 12 8 6 4 2 3 5 9 14 20 25 27 26 23
13 13 13 12 12 12 12 12 12 12 13 13 13 13 13 13 14 14 15 15 14 13 12 11 10 9 8 7 7 7 8 9 12 16 21 25 27 28 28 27 26 23 20 19 21 22 22 20 18 19 20 21 18 16 14 13 10 8 6 5 4 4 6 9 14 19 24 26 23
13 13 12 12 12 12 12 12 12 12 12 13 13 13 13 13 14 14 15 15 15 14 13 11 10 8 7 7 6 6 6 7 10 15 21 27 30 31 31 30 26 21 18 20 22 22 19 14 12 14 17 20 17 15 13 12 11 10 9 8 6 5 5 5 9 14 19 22 21
13 12 12 12 12 12 12 12 12 12 12 12 13 13 13 13 13 14 15 16 16 16 14 13 10 8 7 6 6 5 5 5 8 13 20 28 33 34 34 31 23 17 14 18 20 19 15 10 9 11 14 16 15 13 11 11 11 11 11 11 9 7 5 4 6 10 14 18 18
12 12 12 12 12 12 12 12 12 12 12 12 12 12 12 12 12 13 14 15 17 17 16 14 12 10 8 6 6 5 4 4 6 11 19 29 36 37 35 29 19 11 7 11 16 18 17 13 11 10 10 12 13 12 11 11 12 12 13 12 11 9 7 5 6 8 12 15 16
12 12 12 12 12 12 12 12 12 11 11 11 12 12 12 12 12 12 13 14 16 17 18 17 15 12 10 7 6 5 4 4 5 9 17 28 38 40 36 28 14 4 1 7 13 17 18 16 14 11 9 13 17 18 18 15 14 14 15 15 13 12 9 7 6 7 10 13 15
12 12 12 12 12 12 12 12 11 11 11 11 11 12 12 11 11 11 12 12 14 16 18 19 17 15 12 9 7 6 5 4 4 8 15 27 39 43 38 26 10 0 -2 4 8 13 17 18 12 7 6 11 19 22 21 19 17 17 17 17 16 14 12 9 7 6 7 10 13
12 12 11 11 11 11 11 11 11 11 11 11 11 11 11 11 11 11 11 11 12 14 17 19 18 17 14 11 9 8 6 5 4 7 14 25 39 43 39 25 7 -3 -4 2 4 10 17 17 6 -2 -3 5 13 18 19 18 17 17 17 18 18 17 15 11 8 6 5 7 11
11 11 11 11 11 11 11 10 10 11 11 11 11 11 11 11 11 10 10 10 11 12 14 17 18 18 16 14 11 9 8 6 5 7 13 24 37 43 39 25 5 -7 -10 -2 -0 8 17 21 4 -6 -6 7 11 13 15 16 15 15 16 17 19 19 17 15 12 8 6 5 9
11 11 11 11 10 10 10 10 10 10 11 11 11 11 11 10 10 10 10 10 10 11 12 15 16 17 17 15 13 11 9 8 6 8 13 23 36 42 39 26 5 -11 -16 -7 -9 -6 3 23 7 -0 1 11 10 11 12 14 14 14 14 16 18 19 20 19 16 12 8 6 8
11 11 11 10 10 10 10 10 10 10 11 11 10 10 10 10 10 10 10 10 10 10 11 12 14 16 17 16 15 13 11 9 8 9 13 22 34 40 39 29 8 -11 -18 -7 -11 -16 -12 13 9 9 9 10 9 11 13 15 15 14 13 14 16 18 20 21 20 17 12 8 9
10 10 11 11 10 10 10 10 10 11 11 11 11 11 11 11 10 10 10 10 10 10 11 11 13 15 16 16 15 14 13 10 9 10 14 21 32 38 38 31 14 -6 -16 -7 -9 -13 -10 11 12 13 13 13 13 15 16 16 15 14 13 13 14 15 17 19 21 20 17 13 11
10 10 10 10 10 10 10 10 11 11 11 11 12 12 12 12 11 11 10 10 10 10 10 10 12 13 15 16 16 15 14 12 10 11 15 21 30 35 36 33 19 -1 -15 -13 -15 -15 -5 19 25 25 22 19 19 19 17 15 13 13 13 12 12 13 14 16 19 20 20 18 14
10 10 10 10 11 11 11 10 11 11 12 12 13 13 13 14 13 13 12 10 10 10 10 10 11 12 14 15 16 16 15 13 12 13 16 22 27 31 34 34 22 2 -15 -18 -16 -12 -1 16 22 26 27 24 22 19 17 14 14 14 13 12 11 11 12 14 17 19 21 21 19
10 10 10 11 11 11 11 11 12 12 12 13 13 14 14 15 15 15 13 12 11 10 10 11 11 12 13 15 16 16 15 14 13 14 18 23 26 29 32 34 25 8 -10 -22 -20 -11 2 14 24 29 29 26 22 19 16 16 16 15 13 12 11 10 11 12 14 18 21 23 22
10 10 10 11 11 11 12 12 12 12 12 13 14 15 16 17 17 17 16 14 12 11 11 11 11 12 13 15 16 16 16 14 13 15 19 24 26 28 31 35 31 20 4 -14 -18 -10 3 16 22 24 25 24 20 18 16 17 16 15 14 16 15 13 12 11 14 18 21 24 24
10 10 10 10 11 11 11 11 12 12 13 14 15 16 18 19 20 20 19 16 14 12 11 11 12 13 13 14 16 17 16 13 13 16 20 24 26 27 28 31 33 29 16 -4 -21 -19 -1 29 28 24 20 20 17 17 17 17 14 15 19 24 22 19 16 13 16 19 23 26 27
10 10 10 10 10 11 11 10 11 12 13 14 16 17 19 22 23 23 22 20 17 15 13 12 13 14 14 15 17 17 16 14 13 15 19 23 26 25 23 22 29 32 27 7 -24 -23 1 41 36 27 19 17 16 16 16 14 12 13 16 20 20 19 18 13 14 15 17 20 23
10 10 10 10 10 10 10 10 11 11 12 14 15 17 19 21 24 25 26 25 22 18 15 14 15 16 16 17 18 19 17 14 12 13 16 22 24 21 15 12 19 27 30 22 -18 -23 -3 35 35 26 18 16 15 14 12 9 6 3 2 2 7 12 14 10 6 5 6 8 13
10 10 10 10 10 9 10 10 11 11 12 13 15 16 18 20 24 28 30 30 26 22 17 15 16 17 18 19 20 20 18 14 11 11 13 20 22 18 11 2 8 18 26 26 -6 -14 0 29 34 28 18 14 11 9 8 6 -3 -9 -12 -13 -5 3 9 7 3 2 2 3 6
10 10 10 10 10 10 10 10 11 12 12 13 15 17 19 22 26 29 31 32 30 26 20 16 16 16 18 21 22 22 19 14 10 9 11 17 20 18 11 1 2 9 19 27 8 1 6 26 36 30 18 11 10 10 8 2 -8 -13 -15 -14 -12 -6 2 7 7 7 6 5 5
10 10 10 10 10 10 10 11 12 13 14 15 16 18 21 24 28 31 33 34 33 29 23 18 17 17 19 21 24 23 20 15 10 8 9 13 16 19 18 11 3 2 7 17 14 10 11 22 35 30 17 10 9 9 6 0 -9 -12 -11 -6 -7 -5 1 9 12 12 11 9 7
11 11 11 10 11 11 11 12 13 14 15 17 18 20 22 25 28 31 33 34 34 30 25 21 19 19 20 22 24 24 21 16 11 8 7 8 11 17 21 19 5 -2 1 14 18 13 9 16 36 33 19 9 8 7 4 -1 -6 -8 -6 -1 2 6 10 15 15 14 12 11 10
11 11 11 11 11 11 12 14 15 16 17 18 20 21 23 25 28 30 32 33 31 29 26 23 22 22 22 23 25 25 22 16 12 8 6 3 6 12 19 23 11 -0 -4 8 23 19 10 10 36 37 25 9 9 8 5 2 -3 -5 -3 -0 5 12 17 18 14 11 10 10 10
11 11 11 11 11 12 13 16 17 18 19 19 21 22 24 27 28 29 29 29 28 27 26 25 24 24 24 24 26 25 22 17 13 10 6 1 1 6 13 20 18 7 -4 -6 8 9 7 9 32 37 29 12 11 10 9 6 1 -2 -3 -2 1 8 15 18 11 8 8 9 9
11 11 11 11 11 13 15 18 19 19 19 20 21 22 24 26 26 26 25 25 24 25 25 26 25 25 25 25 26 25 22 18 15 11 7 2 -0 3 8 15 18 12 1 -10 -5 1 6 10 25 31 27 12 11 12 13 12 8 5 2 1 -2 0 5 8 3 3 7 11 11
10 10 10 11 12 14 16 19 19 20 20 21 21 21 21 22 22 22 22 22 23 24 25 26 26 25 25 24 25 24 22 18 16 13 10 5 1 1 4 9 14 14 9 -1 -7 -3 4 7 15 23 25 17 12 11 12 13 11 9 9 9 3 -2 -6 -7 -6 -2 2 5 8
Height
3025 3023 3020 3018 3015 3013 3011 3009 3007 3005 3002 3000 2999 2996 2995 2993 2991 2990 2988 2986 2984 2983 2981 2980 2978 2977 2975 2974 2972 2970 2968 2966 2965 2963 2962 2960 2959 2957 2956 2955 2954 2953 2953 2952 2951 2951 2950 2950 2950 2950 2950 2950 2950 2950 2949 2949 2948 2948 2948 2948 2948 2948 2948 2948 2949 2949 2950 2950 2950
3024 3021 3019 3016 3014 3012 3010 3007 3005 3003 3001 2999 2996 2995 2993 2991 2989 2987 2986 2984 2982 2980 2979 2977 2976 2975 2973 2972 2970 2968 2966 2965 2963 2961 2960 2958 2957 2955 2954 2953 2952 2951 2950 2950 2949 2949 2948 2948 2948 2948 2948 2948 2948 2947 2947 2947 2946 2946 2946 2945 2945 2945 2945 2946 2946 2947 2947 2947 2947
3022 3020 3017 3015 3012 3010 3008 3006 3004 3001 2999 2997 2995 2993 2991 2989 2987 2985 2984 2982 2980 2979 2977 2975 2974 2972 2971 2970 2968 2966 2965 2963 2961 2960 2958 2956 2955 2953 2952 2951 2950 2949 2948 2947 2947 2946 2946 2945 2945 2946 2946 2946 2945 2945 2945 2944 2944 2944 2943 2943 2943 2943 2943 2944 2944 2945 2945 2945 2945
3020 3018 3015 3013 3010 3008 3006 3004 3002 3000 2997 2995 2993 2991 2989 2987 2985 2983 2982 2980 2978 2977 2975 2973 2971 2970 2969 2967 2966 2964 2963 2961 2959 2958 2956 2954 2953 2951 2950 2949 2948 2947 2946 2945 2945 2944 2944 2944 2944 2944 2944 2944 2944 2943 2943 2942 2942 2941 2941 2941 2941 2941 2941 2941 2942 2942 2943 2943 2943
3019 3016 3014 3011 3009 3006 3004 3002 3000 2997 2995 2993 2991 2989 2987 2985 2983 2981 2980 2978 2976 2975 2973 2971 2969 2968 2966 2965 2964 2962 2961 2959 2957 2956 2954 2952 2951 2949 2948 2946 2945 2945 2944 2943 2943 2942 2942 2942 2942 2942 2942 2942 2941 2941 2940 2940 2940 2940 2939 2939 2939 2939 2939 2939 2939 2940 2940 2940 2940
3017 3014 3012 3009 3007 3005 3002 3000 2998 2995 2993 2991 2990 2987 2985 2983 2981 2980 2978 2976 2974 2973 2971 2969 2967 2966 2964 2963 2961 2960 2959 2957 2955 2954 2952 2950 2949 2947 2946 2945 2943 2942 2941 2941 2940 2940 2940 2940 2940 2940 2940 2940 2939 2939 2939 2938 2938 2937 2937 2937 2937 2937 2937 2937 2937 2937 2938 2938 2938
3015 3012 3010 3007 3005 3003 3000 2998 2996 2994 2992 2990 2988 2986 2984 2982 2980 2978 2976 2974 2972 2970 2969 2967 2965 2964 2962 2961 2960 2958 2957 2955 2954 2952 2950 2949 2947 2945 2944 2943 2941 2940 2940 2939 2938 2938 2937 2937 2937 2938 2938 2938 2938 2937 2937 2936 2936 2935 2935 2935 2935 2935 2935 2935 2935 2935 2935 2935 2936
3013 3011 3008 3006 3003 3001 2999 2996 2994 2992 2990 2988 2986 2984 2982 2980 2978 2976 2974 2972 2970 2969 2967 2965 2964 2962 2960 2959 2957 2956 2955 2953 2952 2950 2949 2947 2945 2944 2942 2941 2940 2939 2938 2937 2936 2935 2935 2935 2935 2936 2936 2936 2936 2935 2935 2935 2934 2934 2933 2933 2933 2933 2933 2932 2932 2933 2933 2933 2933
3011 3009 3006 3004 3002 2999 2997 2995 2992 2990 2988 2986 2984 2982 2980 2978 2976 2974 2972 2970 2969 2967 2965 2963 2962 2960 2959 2957 2955 2954 2953 2951 2950 2948 2947 2945 2944 2942 2940 2939 2938 2937 2936 2935 2934 2934 2933 2934 2934 2934 2934 2934 2934 2933 2933 2933 2932 2932 2932 2931 2931 2931 2931 2930 2930 2930 2930 2931 2931
3010 3007 3005 3002 3000 2998 2995 2993 2991 2989 2987 2985 2983 2980 2979 2976 2974 2972 2970 2968 2967 2965 2963 2961 2960 2959 2957 2955 2954 2952 2951 2949 2948 2946 2945 2943 2942 2940 2939 2937 2936 2935 2934 2933 2932 2931 2931 2931 2932 2932 2932 2932 2932 2931 2931 2931 2930 2930 2930 2930 2929 2929 2929 2929 2928 2928 2928 2929 2929
3008 3006 3003 3001 2998 2996 2994 2992 2990 2987 2985 2983 2981 2979 2977 2975 2973 2970 2969 2967 2965 2963 2962 2960 2958 2957 2955 2954 2952 2950 2949 2947 2946 2944 2943 2941 2940 2938 2937 2935 2934 2933 2932 2931 2930 2930 2930 2930 2930 2930 2930 2930 2930 2930 2929 2929 2929 2929 2928 2928 2928 2927 2927 2927 2926 2926 2926 2926 2927
3007 3004 3002 2999 2997 2995 2992 2990 2988 2985 2983 2981 2979 2977 2975 2973 2971 2969 2967 2965 2963 2962 2960 2958 2957 2955 2954 2952 2950 2949 2947 2945 2944 2942 2941 2940 2938 2936 2935 2934 2932 2931 2930 2930 2929 2928 2928 2928 2928 2928 2928 2928 2928 2927 2927 2927 2927 2927 2927 2926 2926 2926 2925 2925 2925 2925 2925 2925 2925
3005 3003 3000 2998 2995 2993 2990 2988 2986 2984 2982 2980 2978 2975 2973 2971 2969 2967 2965 2964 2962 2960 2959 2957 2955 2954 2952 2950 2949 2947 2945 2944 2942 2940 2939 2937 2936 2935 2933 2932 2931 2930 2929 2928 2927 2927 2926 2926 2926 2926 2926 2926 2926 2925 2925 2925 2925 2925 2925 2925 2925 2924 2924 2923 2923 2923 2923 2923 2923
3004 3001 2999 2996 2994 2991 2989 2987 2985 2982 2980 2978 2976 2974 2972 2970 2968 2966 2964 2962 2960 2959 2957 2955 2954 2952 2950 2949 2947 2945 2944 2942 2940 2939 2937 2935 2934 2932 2931 2930 2929 2929 2928 2927 2926 2926 2925 2925 2925 2924 2924 2924 2924 2924 2923 2923 2924 2924 2923 2923 2923 2923 2922 2922 2921 2921 2921 2921 2921
3003 3000 2998 2995 2993 2990 2988 2985 2983 2981 2979 2977 2975 2972 2970 2968 2966 2964 2962 2960 2959 2957 2955 2954 2952 2951 2949 2947 2945 2944 2942 2940 2939 2937 2935 2934 2932 2930 2930 2929 2928 2927 2927 2926 2925 2925 2924 2924 2924 2923 2922 2922 2921 2921 2922 2922 2922 2922 2922 2921 2921 2921 2920 2920 2920 2920 2919 2919 2919
3001 2999 2996 2994 2991 2989 2986 2984 2981 2979 2977 2975 2973 2971 2969 2967 2965 2963 2960 2959 2957 2955 2954 2952 2950 2949 2947 2946 2944 2942 2940 2939 2937 2935 2933 2932 2930 2929 2928 2927 2927 2926 2926 2926 2925 2924 2924 2923 2923 2922 2921 2920 2920 2920 2920 2920 2920 2920 2920 2920 2920 2920 2919 2919 2919 2918 2918 2918 2918
3000 2998 2995 2993 2990 2988 2985 2983 2980 2978 2976 2974 2972 2970 2967 2965 2963 2961 2959 2957 2955 2954 2952 2951 2949 2947 2946 2944 2942 2941 2939 2937 2935 2934 2932 2930 2928 2927 2926 2926 2926 2925 2925 2925 2924 2924 2923 2922 2922 2921 2920 2919 2919 2918 2919 2919 2919 2919 2919 2918 2918 2918 2918 2918 2917 2917 2916 2916 2916
2999 2996 2994 2991 2989 2987 2984 2982 2980 2977 2975 2973 2970 2968 2966 2964 2962 2960 2958 2956 2954 2952 2950 2949 2948 2946 2944 2943 2941 2939 2937 2936 2934 2932 2930 2928 2926 2925 2925 2925 2925 2925 2925 2924 2924 2923 2922 2921 2921 2920 2919 2918 2918 2917 2918 2918 2918 2917 2917 2917 2917 2917 2916 2916 2916 2915 2915 2915 2915
2998 2995 2993 2990 2988 2985 2983 2981 2978 2976 2974 2971 2969 2967 2965 2963 2960 2958 2956 2954 2952 2950 2949 2947 2946 2944 2943 2941 2939 2938 2936 2934 2932 2930 2929 2926 2925 2924 2923 2923 2924 2924 2924 2923 2923 2922 2921 2920 2920 2919 2918 2917 2917 2917 2917 2917 2916 2916 2916 2915 2915 2915 2915 2915 2915 2914 2914 2914 2914
2996 2994 2991 2989 2987 2984 2982 2980 2977 2975 2972 2970 2968 2966 2964 2961 2959 2957 2955 2953 2951 2949 2947 2946 2944 2943 2941 2940 2938 2936 2935 2933 2931 2929 2927 2925 2924 2923 2922 2922 2922 2923 2923 2922 2922 2921 2920 2919 2918 2917 2916 2916 2916 2916 2915 2915 2915 2915 2914 2914 2914 2914 2913 2913 2913 2913 2913 2913 2913
2995 2993 2990 2988 2985 2983 2981 2978 2976 2973 2971 2969 2966 2964 2962 2960 2958 2956 2954 2951 2950 2948 2946 2944 2943 2941 2940 2938 2936 2935 2933 2931 2930 2928 2926 2924 2922 2921 2921 2921 2921 2922 2922 2921 2920 2920 2919 2918 2917 2916 2915 2915 2915 2915 2914 2914 2913 2913 2913 2913 2912 2912 2912 2912 2912 2911 2911 2911 2911
2994 2992 2989 2987 2984 2982 2980 2977 2975 2972 2970 2967 2965 2963 2961 2959 2957 2955 2952 2950 2948 2946 2945 2943 2941 2940 2938 2936 2935 2933 2931 2930 2928 2926 2925 2923 2921 2920 2920 2920 2920 2920 2920 2920 2919 2918 2917 2916 2916 2915 2914 2915 2914 2913 2913 2912 2912 2912 2912 2911 2911 2911 2910 2910 2910 2910 2910 2910 2910
2993 2991 2988 2985 2983 2981 2978 2976 2973 2971 2969 2966 2964 2962 2960 2957 2955 2953 2951 2949 2947 2945 2943 2941 2940 2938 2936 2935 2933 2931 2930 2929 2927 2925 2923 2921 2920 2919 2919 2919 2919 2920 2919 2919 2918 2917 2916 2915 2915 2914 2914 2915 2913 2912 2912 2911 2911 2910 2910 2910 2910 2909 2909 2909 2909 2909 2909 2909 2909
2992 2990 2987 2985 2982 2980 2977 2975 2972 2970 2967 2965 2963 2960 2958 2956 2954 2952 2950 2948 2946 2944 2942 2940 2938 2937 2935 2933 2931 2930 2928 2927 2925 2924 2922 2920 2919 2918 2918 2918 2918 2918 2918 2917 2916 2916 2915 2915 2914 2914 2914 2914 2912 2911 2910 2910 2910 2910 2909 2909 2908 2908 2907 2907 2907 2907 2907 2907 2907
2991 2989 2986 2984 2981 2978 2976 2973 2971 2969 2966 2964 2961 2959 2957 2955 2952 2950 2948 2946 2944 2942 2940 2939 2937 2935 2933 2932 2930 2928 2927 2925 2924 2923 2921 2920 2918 2917 2917 2917 2917 2917 2917 2916 2916 2915 2915 2915 2914 2914 2914 2912 2911 2910 2910 2909 2909 2908 2908 2907 2907 2906 2906 2906 2905 2905 2906 2906 2906
2990 2988 2985 2983 2980 2977 2975 2972 2970 2967 2965 2962 2960 2958 2955 2953 2951 2949 2947 2945 2943 2941 2939 2937 2935 2934 2932 2930 2929 2927 2925 2924 2923 2921 2920 2918 2917 2916 2916 2916 2916 2916 2916 2916 2915 2915 2915 2914 2914 2914 2912 2910 2909 2909 2909 2908 2908 2907 2907 2906 2906 2905 2905 2904 2904 2904 2904 2904 2904
2989 2986 2984 2981 2979 2976 2973 2970 2968 2965 2963 2961 2958 2956 2954 2952 2949 2947 2945 2943 2941 2939 2937 2935 2934 2932 2930 2929 2927 2925 2924 2923 2921 2920 2918 2917 2916 2915 2915 2915 2915 2915 2915 2915 2915 2915 2915 2915 2913 2911 2910 2909 2908 2908 2907 2907 2907 2906 2906 2905 2905 2904 2903 2903 2903 2903 2903 2903 2903
2988 2985 2982 2980 2977 2974 2972 2969 2966 2964 2961 2959 2956 2954 2952 2950 2948 2945 2944 2941 2939 2937 2935 2934 2932 2930 2929 2927 2925 2924 2923 2921 2920 2919 2917 2916 2915 2914 2914 2914 2914 2914 2914 2915 2915 2915 2915 2915 2912 2910 2909 2908 2908 2907 2906 2906 2906 2905 2905 2904 2903 2903 2902 2902 2902 2901 2901 2901 2901
2986 2984 2981 2978 2975 2973 2970 2967 2965 2962 2960 2957 2955 2952 2950 2948 2945 2944 2941 2940 2937 2935 2933 2932 2930 2929 2927 2925 2924 2923 2921 2920 2919 2918 2916 2915 2914 2913 2913 2913 2913 2913 2913 2914 2914 2914 2915 2915 2910 2908 2908 2907 2907 2906 2906 2905 2905 2905 2904 2903 2902 2902 2901 2901 2901 2900 2900 2900 2900
2985 2982 2979 2976 2974 2971 2969 2966 2963 2960 2958 2955 2953 2950 2948 2945 2943 2941 2939 2937 2935 2934 2932 2930 2928 2927 2925 2924 2923 2921 2920 2919 2918 2917 2915 2914 2913 2913 2912 2912 2912 2912 2912 2913 2913 2914 2915 2914 2910 2908 2907 2907 2906 2906 2905 2905 2905 2904 2903 2902 2902 2901 2900 2900 2900 2900 2899 2899 2899
2983 2980 2978 2975 2972 2970 2967 2964 2961 2959 2956 2953 2951 2948 2946 2943 2941 2939 2937 2935 2933 2932 2930 2928 2927 2925 2924 2923 2921 2920 2919 2918 2917 2916 2915 2914 2913 2912 2912 2911 2911 2911 2912 2912 2912 2913 2913 2912 2909 2907 2906 2906 2906 2905 2905 2905 2905 2904 2903 2902 2901 2900 2899 2900 2900 2899 2898 2898 2897
2982 2979 2976 2974 2971 2968 2965 2962 2960 2957 2954 2952 2949 2946 2944 2941 2939 2937 2935 2933 2931 2930 2928 2926 2925 2923 2922 2921 2920 2919 2918 2916 2915 2915 2914 2913 2912 2911 2911 2911 2911 2911 2911 2911 2912 2912 2912 2911 2909 2907 2906 2906 2905 2905 2905 2905 2905 2905 2904 2903 2901 2900 2899 2899 2899 2898 2898 2897 2896
2981 2978 2975 2972 2970 2967 2964 2961 2958 2955 2953 2950 2947 2945 2942 2939 2937 2935 2933 2931 2929 2927 2926 2924 2922 2921 2920 2919 2918 2917 2916 2915 2915 2914 2913 2912 2912 2911 2911 2910 2910 2910 2910 2911 2911 2911 2911 2910 2908 2906 2905 2905 2905 2905 2905 2905 2905 2905 2904 2903 2901 2899 2898 2898 2898 2898 2897 2896 2895
2980 2977 2974 2971 2968 2965 2963 2960 2957 2954 2951 2948 2946 2943 2940 2937 2935 2932 2930 2929 2927 2925 2924 2922 2921 2919 2918 2917 2916 2915 2915 2914 2914 2913 2913 2912 2911 2910 2910 2910 2910 2910 2910 2910 2910 2910 2910 2910 2908 2906 2905 2905 2905 2905 2905 2905 2905 2904 2903 2902 2901 2900 2898 2897 2897 2897 2896 2895 2895
2978 2975 2973 2970 2967 2964 2961 2959 2956 2953 2950 2947 2944 2941 2938 2935 2933 2930 2928 2926 2925 2923 2922 2920 2919 2918 2917 2916 2915 2914 2913 2913 2912 2912 2912 2911 2910 2910 2910 2909 2909 2910 2910 2910 2910 2909 2909 2909 2907 2905 2905 2905 2905 2905 2905 2905 2904 2904 2903 2901 2901 2900 2899 2897 2896 2895 2895 2895 2895
2977 2975 2972 2969 2966 2963 2960 2957 2955 2952 2949 2945 2942 2940 2936 2934 2931 2929 2926 2924 2923 2921 2920 2919 2917 2916 2915 2914 2914 2913 2912 2912 2911 2911 2911 2910 2910 2910 2909 2909 2909 2909 2910 2910 2909 2909 2909 2908 2907 2906 2905 2905 2905 2904 2904 2904 2904 2904 2903 2902 2901 2900 2900 2898 2896 2895 2895 2894 2894
2977 2974 2971 2968 2965 2962 2960 2956 2953 2950 2947 2944 2941 2938 2935 2932 2929 2927 2925 2922 2921 2920 2918 2917 2916 2915 2914 2913 2912 2912 2911 2911 2910 2910 2910 2910 2910 2909 2909 2909 2908 2908 2909 2909 2909 2908 2908 2908 2908 2906 2905 2905 2904 2904 2904 2903 2903 2903 2903 2902 2902 2901 2900 2899 2897 2895 2894 2894 2894
2976 2973 2970 2967 2964 2961 2958 2955 2952 2949 2946 2943 2940 2937 2934 2931 2929 2926 2924 2921 2920 2918 2917 2915 2914 2913 2912 2912 2911 2910 2910 2910 2910 2910 2910 2910 2909 2909 2909 2908 2908 2908 2908 2909 2908 2907 2907 2907 2907 2906 2905 2904 2904 2904 2903 2903 2902 2902 2902 2902 2903 2903 2902 2900 2896 2894 2894 2894 2894
2975 2972 2969 2966 2963 2960 2957 2954 2951 2948 2945 2942 2939 2936 2933 2931 2928 2925 2923 2921 2920 2918 2916 2915 2913 2912 2911 2911 2910 2910 2910 2909 2909 2909 2909 2909 2909 2909 2909 2908 2908 2907 2907 2908 2908 2906 2905 2905 2906 2905 2904 2904 2904 2903 2903 2902 2902 2901 2901 2902 2903 2905 2903 2900 2895 2893 2892 2894 2894
2975 2972 2969 2965 2962 2959 2956 2953 2950 2947 2944 2941 2938 2935 2933 2930 2928 2926 2923 2921 2919 2917 2916 2914 2913 2912 2911 2910 2910 2909 2909 2909 2908 2909 2909 2909 2909 2909 2909 2908 2908 2907 2907 2907 2907 2906 2905 2904 2905 2904 2903 2903 2903 2903 2903 2902 2902 2901 2901 2901 2902 2903 2901 2898 2894 2892 2892 2893 2894
2974 2971 2968 2965 2961 2958 2955 2953 2950 2947 2944 2941 2938 2935 2933 2931 2929 2926 2924 2922 2920 2918 2916 2915 2913 2912 2911 2910 2909 2909 2908 2908 2908 2908 2908 2909 2909 2909 2909 2908 2908 2907 2907 2906 2906 2906 2905 2904 2905 2904 2903 2902 2902 2902 2902 2902 2901 2901 2901 2900 2900 2900 2899 2896 2894 2893 2893 2893 2893